Location: Carlisle
(34.5501°N, 84.5969°W)
Time: 04:20:59
(UTC+00:00)

ITUPSAT 1 - Visible Passes

Search period start: 29 March 2023 00:00
Search period end: 08 April 2023 00:00
Orbit: 699 x 709 km, 98.5° (Epoch: 28 March)

Date Brightness Start Highest point End Pass type
(mag) Time Alt. Az. Time Alt. Az. Time Alt. Az.
31 Mar ? 02:43:10 10° NNE 02:43:16 11° NNE 02:43:16 11° NNE visible
01 Apr ? 03:26:56 10° N 03:27:17 12° N 03:27:17 12° N visible
02 Apr ? 02:32:09 10° NNE 02:32:22 11° NNE 02:32:22 11° NNE visible
03 Apr ? 03:15:40 10° N 03:16:22 14° N 03:16:22 14° N visible
04 Apr ? 02:21:11 10° NNE 02:21:27 11° NNE 02:21:27 11° NNE visible
05 Apr ? 03:04:26 10° N 03:05:26 16° N 03:05:26 16° N visible
06 Apr ? 02:10:17 10° NNE 02:10:30 11° NNE 02:10:30 11° NNE visible
06 Apr ? 03:48:44 10° NNW 03:49:26 13° NNW 03:49:26 13° NNW visible
07 Apr ? 02:53:16 10° N 02:54:29 18° N 02:54:29 18° N visible
